Location: Tel Aviv-Yafo
(32.0678°N, 34.7647°E)
Time: 02:35:03
(UTC+02:00)

Daily predictions for brighter satellites

Satellite Brightness Start Highest point End
(mag) Time Altitude Azimuth Time Altitude Azimuth Time Altitude Azimuth
ATLAS 3B R/B 4.5 02:47:42 26° ENE 02:47:42 26° ENE 02:51:19 10° NE
USA 215 4.4 03:03:08 10° ENE 03:08:51 36° ESE 03:08:51 36° ESE
Milstar 3 Cent rocket 3.8 03:21:46 30° ESE 03:21:46 30° ESE 03:25:10 10° E
H-2A R/B 4.5 03:24:30 10° NE 03:27:49 18° E 03:31:10 10° SE
Cosmos 2344 4.2 03:29:46 69° NW 03:31:28 85° WSW 03:45:13 10° SSE
Lacrosse 5 4.2 03:35:44 16° SSE 03:35:44 16° SSE 03:36:42 10° SSE
Cosmos 2360 Rocket 3.1 03:42:41 35° SSE 03:44:26 46° ESE 03:49:49 10° NNE
Cosmos 2219 Rocket 4.5 03:45:58 10° SSE 03:50:13 22° E 03:54:29 10° NE
Cosmos 1818 4.3 03:53:05 47° SE 03:53:05 47° SE 03:56:53 10° SSE
NOSS 3-1 (A) 3.7 03:58:01 47° NE 03:58:01 47° NE 04:02:00 10° NE
Cosmos 2322 Rocket 3.0 04:04:10 41° NNE 04:04:10 41° NNE 04:07:46 10° NNE
Cosmos 1680 Rocket 3.7 04:04:20 10° S 04:09:34 68° ESE 04:14:49 10° NNE
Cosmos 2058 Rocket 3.5 04:12:42 58° ESE 04:12:42 58° ESE 04:16:40 10° SSE
ARIANE 5 R/B 2.9 04:09:04 10° NNE 04:14:15 64° ESE 04:19:25 10° S
Cosmos 2333 Rocket 2.5 04:08:41 10° S 04:14:19 67° ESE 04:20:01 10° NNE
CZ-3 R/B 3.2 04:05:25 25° WSW 04:20:25 68° S 04:27:42 10° E
Cosmos 2112 Rocket 4.2 04:16:04 10° S 04:21:21 74° ESE 04:26:40 10° NNE
Gblst 52 Del rocket 4.2 04:22:22 54° NNW 04:23:42 79° NE 04:29:15 10° SE
SL-16 R/B 4.1 04:29:36 15° N 04:29:36 15° N 04:30:38 10° N
Cosmos 1891 Rocket 4.3 04:22:19 10° S 04:28:26 77° W 04:34:29 10° N
Cosmos 2227 4.0 04:27:48 51° NW 04:29:15 76° WSW 04:34:51 10° SSE
Cosmos 1626 Rocket 3.5 04:25:00 10° S 04:29:21 81° E 04:33:42 10° N
ATLAS 3B R/B 3.1 04:35:03 40° WNW 04:35:33 40° NW 04:42:22 10° NNE
Geosat 3.8 04:31:20 10° NNE 04:36:18 67° WNW 04:40:58 12° SW
ATLAS 2A CENTAUR R/B 2.8 04:35:23 37° SW 04:36:31 44° SSW 04:39:17 10° ESE
Cosmos 2263 Rocket 4.0 04:39:59 15° SW 04:39:59 15° SW 04:41:18 10° SSW
Cosmos 1844 Rocket 3.1 04:34:45 15° N 04:39:23 60° ENE 04:44:56 10° SSE
GRACE-FO 1 4.3 04:47:05 42° N 04:48:12 81° W 04:51:45 10° S
Cosmos-2242 4.0 04:44:07 10° N 04:48:14 47° E 04:52:17 10° SSE
GRACE-FO 2 4.3 04:47:31 42° N 04:48:38 80° W 04:52:11 10° S
Cosmos 2333 4.1 04:43:50 10° SSW 04:49:30 70° WNW 04:55:16 10° NNE
USA 215 3.4 04:45:49 10° NNE 04:52:03 51° NW 04:56:15 21° WSW
Cosmos 2322 4.5 04:46:33 10° S 04:52:04 54° ESE 04:57:34 10° NNE
SL-19 R/B 4.1 04:48:58 10° N 04:54:18 57° WNW 04:59:25 10° SSW
COSMO-SKYMED 1 3.0 04:50:12 10° SSE 04:54:28 63° ENE 04:58:46 10° N
Okean 1-7 Rocket 3.4 04:50:19 10° SSW 04:54:42 71° W 04:59:05 10° N
USA 281 3.4 04:50:24 10° N 04:56:35 45° WNW 05:02:44 10° SW
Gbstr 26 Del rocket 3.6 04:54:54 26° NNW 04:57:25 62° NE 05:02:54 10° SE
Cosmos 1939 Rocket 3.9 05:00:59 26° WSW 05:00:59 26° WSW 05:03:03 10° SW
CZ-2D R/B 3.3 04:56:26 10° N 05:00:15 53° WNW 05:04:04 10° SSW
Nadezhda 4 Rocket 4.1 04:56:35 10° N 05:02:43 79° E 05:08:53 10° S
SL-4 R/B 3.0 05:03:23 29° WSW 05:04:22 32° SW 05:08:19 10° SSE
ARGOS 3.3 04:59:09 10° NNE 05:04:33 79° ESE 05:09:54 10° S
H-2A R/B 2.4 05:02:46 10° N 05:07:16 37° WNW 05:11:48 10° SW
Lacrosse 5 rocket 1.7 05:08:04 10° SSW 05:12:10 67° SE 05:16:27 10° NE
Cosmos 2058 4.2 05:09:37 10° SW 05:17:12 - NNW 05:11:44 21° WSW
ASTRO E2 2.9 05:12:59 25° W 05:14:47 52° SSW 05:18:22 10° ESE
Delta 168 4.3 05:15:40 13° SW 05:17:29 19° S 05:19:59 10° SE
NOAA 12 4.0 05:15:14 10° N 05:20:28 66° WNW 05:25:39 10° SSW
OAO 3 Rocket 4.4 05:17:42 10° SW 05:22:17 41° SSE 05:26:53 10° E
Cosmos 1464 Rocket 4.4 05:16:57 10° SW 05:22:30 36° W 05:28:08 10° NNW
SJ-6F 4.5 05:18:54 10° N 05:22:56 53° WNW 05:26:54 10° SSW
Cosmos 1825 Rocket 3.6 05:19:03 10° S 05:23:26 83° E 05:27:48 10° N
Helios 1A 3.9 05:22:16 10° SSW 05:25:41 26° W 05:28:18 14° NW
Helios 1B rocket 2.5 05:22:02 10° NNE 05:25:59 76° ESE 05:29:57 10° S
Cosmos 1812 Rocket 3.5 05:22:02 10° N 05:26:27 74° W 05:30:53 10° S
Cosmos 1862 4.1 05:23:58 10° S 05:27:41 53° E 05:31:26 10° NNE
PSLV R/B 3.5 05:23:30 10° N 05:27:45 61° WNW 05:31:57 10° SSW
Cosmos 2360 Rocket 3.4 05:24:47 11° WSW 05:28:35 20° WNW 05:32:43 10° NNW
Cosmos 1758 Rocket 4.3 05:26:40 10° SW 05:30:28 30° W 05:34:16 10° NNW
TRACE 4.5 05:28:48 10° S 05:32:26 81° WSW 05:36:03 10° NNW
SL-08 R/B 3.3 05:28:27 10° S 05:33:09 61° WSW 05:37:48 10° NNW
Cosmos 2219 Rocket 2.6 05:28:36 10° SW 05:33:49 39° WNW 05:39:06 10° N
CZ-2D R/B 3.0 05:30:59 10° N 05:34:38 77° WNW 05:38:15 10° SSW
SMAP 4.3 05:31:26 10° NNE 05:35:55 47° E 05:40:23 10° S
Cosmos 1844 4.0 05:30:56 10° NNW 05:36:16 47° WSW 05:41:32 10° S
USA 229 DEB 3.6 05:30:56 10° SW 05:36:46 50° NW 05:43:05 10° NNE
Cosmos 2056 Rocket 3.5 05:31:26 10° NNW 05:36:47 71° WSW 05:42:00 10° S
USA 229 3.6 05:30:58 10° SW 05:36:50 50° NW 05:43:09 10° NNE
SKYMED 2 4.3 05:38:41 10° SSW 05:42:32 32° W 05:46:26 10° NW
CZ-2C R/B 2.6 05:41:08 10° N 05:44:53 83° WNW 05:48:40 10° SSW
SJ-11-01 4.3 05:41:34 10° N 05:46:11 64° WNW 05:50:47 10° SSW
Cosmos 2151 3.8 05:42:53 10° S 05:46:56 55° E 05:51:02 10° NNE
Cosmos 494 Rocket 4.2 05:42:10 10° SW 05:47:03 46° WNW 05:51:58 10° N
ERS-2 2.4 05:47:21 10° NNW 05:49:54 28° WNW 05:52:28 10° SW
VEP-3 3.9 05:43:57 10° WSW 05:49:56 40° S 05:56:15 10° E
ARIANE 5 R/B 4.2 05:50:27 10° NW 05:52:42 13° WNW 05:54:57 10° W
Meteor 1-31 Rocket 3.0 05:52:27 10° NNE 05:56:14 73° ESE 06:00:00 10° S
CZ-3 Stage 3 2.0 05:54:34 10° WSW 05:56:36 18° SSW 05:58:00 10° SSE
Milstar 3 Cent rocket 3.7 05:51:26 10° W 05:57:03 48° S 06:07:28 10° ESE
COSMOS 2455 3.1 05:52:10 10° NW 05:57:57 51° WSW 06:03:43 10° S
COSMOS 2428 2.9 05:52:59 10° SW 05:58:27 49° WNW 06:03:58 10° N
Cosmos 2333 Rocket 3.7 05:55:57 10° W 05:59:04 15° WNW 06:02:12 10° NNW
Cosmos 1666 4.5 05:56:17 10° SSE 05:59:32 34° E 06:02:46 10° NNE
Milstar 3 4.4 05:53:37 10° W 06:10:52 62° SSW 06:19:43 10° ESE
